Location: Red Bud (historical)
(37.7759°N, 88.4053°W)
Time: 21:14:51
(UTC+00:00)

Nauka - Pass Details

Date: 17 September 2021
Orbit: 417 x 423 km, 51.6° (Epoch: 22 October)

Event Time Altitude Azimuth Distance (km) Brightness Sun altitude
Rises 00:51:11 0° 220° (SW) 2,345 ? -11.0°
Reaches altitude 10° 00:53:17 10° 217° (SW) 1,487 ? -11.4°
Maximum altitude 00:56:34 59° 137° (SE) 488 ? -12.0°
Enters shadow 00:59:21 14° 59° (ENE) 1,285 ? -12.6°
